Regional Weather Roundup
Issued by NWS Goodland, KS

Home | Current Version | Previous Version | Text Only | Print | Product List | Glossary Off
Versions: 1 2 3 4 5 6 7 8 9 10 11 12 13 14 15 16 17 18 19 20 21 22 23 24 25 26 27 28 29 30 31 32 33 34 35 36 37 38 39 40 41 42 43 44 45 46 47 48 49 50

000
ASUS43 KGLD 051159
RWRGLD

GOODLAND FORECAST AREA HOURLY WEATHER ROUNDUP
NATIONAL WEATHER SERVICE GOODLAND KS
600 AM MDT SAT SEP 05 2015

...OFFICIAL OBSERVATIONS...

CITY           SKY/WX    TMP DP  RH WIND       PRES   REMARKS
GOODLAND KS    MOCLDY    67  56  67 S9        29.91S
HILL CITY KS   CLEAR     75  62  64 S7        29.90R
IMPERIAL NEB   CLOUDY    74  55  51 S13       29.85S
MCCOOK NEB     PTCLDY    75  58  55 S9G17     29.86R
AKRON CO       PTCLDY    65  49  56 SW13      29.91R
BURLINGTON CO  PTCLDY    66  49  54 S10       29.94S
LIMON CO       PTCLDY    54  49  83 CALM      29.99S
$$

...UNOFFICIAL OBSERVATIONS...

CITY           SKY/WX    TMP DP  RH WIND       PRES   REMARKS
COLBY KS       CLEAR     75  61  60 S10       29.92R
GOVE KS          N/A     75  32  20 MISG        N/A
LENORA KS        N/A     73  32  22 MISG        N/A
NORTON KS      CLEAR     73  55  53 S13G18    29.88R
SHARON SPRINGS   N/A     70  58  66 SE10        N/A
TRENTON NEB      N/A     73  32  22 S8          N/A
KIT CARSON CO    N/A     65  51  60 MISG        N/A
YUMA CO          N/A     65  50  58 SW8         N/A
$$



USA.gov is the U.S. government's official web portal to all federal, state and local government web resources and services.